Regional Weather Roundup
Issued by NWS

Home | Current Version | Previous Version | Text Only | Print | Product List | Glossary Off
Versions: 1 2 3 4 5 6 7 8 9 10 11 12 13 14 15 16 17 18 19 20 21 22 23 24 25 26 27 28 29 30 31 32 33 34 35 36 37 38 39 40 41 42 43 44 45 46 47 48 49 50

000
ASUS43 KBIS 060802
RWRND

NORTH DAKOTA REGIONAL WEATHER ROUNDUP
NATIONAL WEATHER SERVICE BISMARCK ND
300 AM CDT MON JUL 06 2015

NOTE: "FAIR" INDICATES FEW OR NO CLOUDS BELOW 12,000 FEET WITH NO
SIGNIFICANT WEATHER AND/OR OBSTRUCTIONS TO VISIBILITY.


NDZ001>003-009>011-017-060900-
NORTHWEST NORTH DAKOTA

CITY           SKY/WX    TMP DP  RH WIND       PRES   REMARKS
WILLISTON      MOCLDY    60  51  72 N5        30.11R
MINOT          CLOUDY    54  50  86 NW8       30.05R
$$

NDZ018>021-031>035-040>046-060900-
SOUTHWEST NORTH DAKOTA

CITY           SKY/WX    TMP DP  RH WIND       PRES   REMARKS
BISMARCK       MOCLDY    63  54  72 NW12      30.02R HAZE
DICKINSON      CLOUDY    58  52  80 NW5       30.08R
GARRISON         N/A     56  53  90 N8        30.05R
HETTINGER ARPT CLOUDY    58  51  78 N6        30.10R
$$

NDZ004>008-012>016-024-026-027-054-060900-
NORTHEAST NORTH DAKOTA

CITY           SKY/WX    TMP DP  RH WIND       PRES   REMARKS
GRAND FORKS    CLOUDY    61  58  90 N16       29.94R FOG
GRND FRKS AFB  PTCLDY    60  56  86 N13G22    29.96R HAZE
DEVILS LAKE    PTCLDY    57  52  82 N10       29.99R
$$

NDZ022-023-025-028>030-036>039-047>053-060900-
SOUTHEAST NORTH DAKOTA

CITY           SKY/WX    TMP DP  RH WIND       PRES   REMARKS
FARGO          CLOUDY    65  59  81 N10       29.91R HAZE
JAMESTOWN      MOCLDY    63  57  81 N12       29.96R HAZE
$$




USA.gov is the U.S. government's official web portal to all federal, state and local government web resources and services.